Weather History for Claremore, OK

Change the Weather History Date:

Saturday, September 7, 2013

  Actual Average (KTUL) Record (KTUL)
Temperature  
Mean Temperature 79 °F 77 °F  
Max Temperature 96 °F 88 °F 106 °F (1936)
Min Temperature 62 °F 66 °F 49 °F (2011)
Degree Days  
Heating Degree Days 0 0  
Month to date heating degree days 0  
Since 1 July heating degree days 0  
Cooling Degree Days 14 12  
Month to date cooling degree days 90  
Year to date cooling degree days 1791  
Growing Degree Days 29 (Base 50)    
Moisture  
Dew Point 62 °F    
Average Humidity 58    
Maximum Humidity 94    
Minimum Humidity 28    
Precipitation  
Precipitation 0.00 in 0.15 in 1.90 in (1905)
Month to date precipitation 0.95  
Year to date precipitation 28.43  
Sea Level Pressure  
Sea Level Pressure 30.02 in    
Wind  
Wind Speed 4 mph (SSE)    
Max Wind Speed 9 mph    
Max Gust Speed -    
Visibility 10 miles    
Events      
T = Trace of Precipitation, MM = Missing Value Source: NWS Daily Summary

Daily Weather History Graph

Daily Weather History Graph

Search for Another Location

Airport:

Trip Planner

Search our weather history database for the weather conditions in past years. The results will help you decide how hot, cold, wet, or windy it might be!

Date:

Astronomy

Sep. 07, 2013 Rise Set
Actual Time 6:58 AM CDT 7:40 PM CDT
Civil Twilight 6:32 AM CDT 8:06 PM CDT
Nautical Twilight 6:01 AM CDT 8:37 PM CDT
Astronomical Twilight 5:29 AM CDT 9:08 PM CDT
Moon 9:08 AM CDT (9/7) 8:46 PM CDT (9/7)
Length of Visible Light 13h 34m
Length of Day
12h 42m
Waxing Crescent, 5% of the Moon is Illuminated
Sep 7
Waxing Crescent
Sep 12
First Quarter
Sep 19
Full
Sep 26
Last Quarter
Oct 4
New

Hourly Weather History & Observations

Time (CDT) Temp. Heat Index Dew Point Humidity Pressure Visibility Wind Dir Wind Speed Gust Speed Precip Events Conditions
12:15 AM 73.4 °F - 64.4 °F 73% 30.03 in 10.0 mi ESE 6.9 mph - N/A   Clear
12:35 AM 73.4 °F - 64.4 °F 73% 30.04 in 10.0 mi SE 3.5 mph - N/A   Clear
12:55 AM 69.8 °F - 64.4 °F 83% 30.04 in 7.0 mi Calm Calm - N/A   Clear
1:15 AM 69.8 °F - 64.4 °F 83% 30.04 in 10.0 mi Calm Calm - N/A   Clear
1:35 AM 69.8 °F - 64.4 °F 83% 30.04 in 10.0 mi SE 4.6 mph - N/A   Clear
1:55 AM 69.8 °F - 62.6 °F 78% 30.03 in 10.0 mi SSE 5.8 mph - N/A   Clear
2:15 AM 71.6 °F - 62.6 °F 73% 30.03 in 10.0 mi SE 6.9 mph - N/A   Clear
2:35 AM 71.6 °F - 62.6 °F 73% 30.03 in 10.0 mi SE 6.9 mph - N/A   Clear
2:55 AM 69.8 °F - 62.6 °F 78% 30.03 in 10.0 mi SE 6.9 mph - N/A   Clear
3:15 AM 69.8 °F - 60.8 °F 73% 30.03 in 10.0 mi SE 6.9 mph - N/A   Clear
3:35 AM 69.8 °F - 60.8 °F 73% 30.03 in 10.0 mi Calm Calm - N/A   Clear
3:55 AM 69.8 °F - 60.8 °F 73% 30.03 in 10.0 mi Calm Calm - N/A   Clear
4:15 AM 69.8 °F - 60.8 °F 73% 30.04 in 10.0 mi SE 3.5 mph - N/A   Clear
4:35 AM 69.8 °F - 60.8 °F 73% 30.03 in 10.0 mi SE 3.5 mph - N/A   Clear
4:55 AM 68.0 °F - 60.8 °F 78% 30.03 in 10.0 mi Calm Calm - N/A   Clear
5:15 AM 66.2 °F - 60.8 °F 83% 30.04 in 10.0 mi Calm Calm - N/A   Clear
5:35 AM 68.0 °F - 60.8 °F 78% 30.04 in 10.0 mi Calm Calm - N/A   Clear
5:55 AM 64.4 °F - 60.8 °F 88% 30.04 in 10.0 mi Calm Calm - N/A   Clear
6:15 AM 64.4 °F - 60.8 °F 88% 30.05 in 10.0 mi Calm Calm - N/A   Clear
6:35 AM 62.6 °F - 60.8 °F 94% 30.05 in 10.0 mi Calm Calm - N/A   Clear
6:55 AM 62.6 °F - 59.0 °F 88% 30.05 in 10.0 mi Calm Calm - N/A   Clear
7:15 AM 62.6 °F - 60.8 °F 94% 30.05 in 10.0 mi Calm Calm - N/A   Clear
7:35 AM 64.4 °F - 60.8 °F 88% 30.06 in 10.0 mi Calm Calm - N/A   Clear
7:55 AM 66.2 °F - 62.6 °F 88% 30.06 in 10.0 mi Calm Calm - N/A   Clear
8:15 AM 69.8 °F - 62.6 °F 78% 30.05 in 10.0 mi Calm Calm - N/A   Clear
8:35 AM 71.6 °F - 62.6 °F 73% 30.05 in 10.0 mi South 3.5 mph - N/A   Clear
8:55 AM 73.4 °F - 62.6 °F 69% 30.05 in 10.0 mi South 4.6 mph - N/A   Clear
9:15 AM 77.0 °F - 62.6 °F 61% 30.06 in 10.0 mi SSE 6.9 mph - N/A   Clear
9:35 AM 78.8 °F - 62.6 °F 57% 30.06 in 10.0 mi South 8.1 mph - N/A   Clear
9:55 AM 80.6 °F 81.8 °F 62.6 °F 54% 30.06 in 10.0 mi SSE 6.9 mph - N/A   Clear
10:15 AM 82.4 °F 83.4 °F 62.6 °F 51% 30.06 in 10.0 mi South 8.1 mph - N/A   Clear
10:35 AM 84.2 °F 85.0 °F 62.6 °F 48% 30.06 in 10.0 mi South 8.1 mph - N/A   Clear
10:55 AM 86.0 °F 86.6 °F 62.6 °F 45% 30.07 in 10.0 mi South 8.1 mph - N/A   Clear
11:15 AM 86.0 °F 86.6 °F 62.6 °F 45% 30.07 in 10.0 mi SSW 8.1 mph - N/A   Clear
11:35 AM 87.8 °F 88.5 °F 62.6 °F 43% 30.07 in 10.0 mi SSW 9.2 mph - N/A   Clear
11:55 AM 89.6 °F 90.1 °F 62.6 °F 40% 30.06 in 10.0 mi SW 8.1 mph - N/A   Clear
12:15 PM 89.6 °F 90.1 °F 62.6 °F 40% 30.06 in 10.0 mi SW 9.2 mph - N/A   Clear
12:35 PM 89.6 °F 90.1 °F 62.6 °F 40% 30.05 in 7.0 mi SSW 9.2 mph - N/A   Clear
12:55 PM 91.4 °F 92.1 °F 62.6 °F 38% 30.04 in 10.0 mi SW 6.9 mph - N/A   Clear
1:15 PM 91.4 °F 92.1 °F 62.6 °F 38% 30.04 in 10.0 mi SW 6.9 mph - N/A   Clear
1:35 PM 93.2 °F 94.1 °F 62.6 °F 36% 30.03 in 10.0 mi SSW 8.1 mph - N/A   Clear
1:55 PM 93.2 °F 94.1 °F 62.6 °F 36% 30.03 in 10.0 mi Calm Calm - N/A   Clear
2:15 PM 93.2 °F 94.1 °F 62.6 °F 36% 30.02 in 10.0 mi SW 6.9 mph - N/A   Clear
2:35 PM 95.0 °F 96.0 °F 62.6 °F 34% 30.01 in 10.0 mi Calm Calm - N/A   Clear
2:55 PM 95.0 °F 96.0 °F 62.6 °F 34% 30.00 in 10.0 mi SW 5.8 mph - N/A   Clear
3:15 PM 96.8 °F 97.1 °F 60.8 °F 30% 29.99 in 10.0 mi SSE 4.6 mph - N/A   Clear
3:35 PM 96.8 °F 97.1 °F 60.8 °F 30% 29.98 in 10.0 mi South 4.6 mph - N/A   Clear
3:55 PM 96.8 °F 97.1 °F 60.8 °F 30% 29.98 in 10.0 mi SSW 5.8 mph - N/A   Clear
4:15 PM 95.0 °F 95.2 °F 60.8 °F 32% 29.97 in 10.0 mi SSE 5.8 mph - N/A   Clear
4:35 PM 96.8 °F 96.2 °F 59.0 °F 28% 29.97 in 10.0 mi South 4.6 mph - N/A   Clear
4:55 PM 96.8 °F 96.2 °F 59.0 °F 28% 29.97 in 10.0 mi SE 5.8 mph - N/A   Clear
5:15 PM 95.0 °F 94.4 °F 59.0 °F 30% 29.96 in 10.0 mi SSW 3.5 mph - N/A   Clear
5:35 PM 95.0 °F 95.2 °F 60.8 °F 32% 29.96 in 10.0 mi South 4.6 mph - N/A   Clear
5:55 PM 95.0 °F 95.2 °F 60.8 °F 32% 29.96 in 10.0 mi SSE 5.8 mph - N/A   Clear
6:15 PM 95.0 °F 95.2 °F 60.8 °F 32% 29.95 in 10.0 mi SSE 6.9 mph - N/A   Clear
6:35 PM 91.4 °F 91.4 °F 60.8 °F 36% 29.95 in 10.0 mi SSE 4.6 mph - N/A   Clear
6:55 PM 89.6 °F 90.1 °F 62.6 °F 40% 29.95 in 10.0 mi South 5.8 mph - N/A   Clear
7:15 PM 87.8 °F 89.4 °F 64.4 °F 46% 29.95 in 10.0 mi South 3.5 mph - N/A   Clear
7:35 PM 86.0 °F 87.3 °F 64.4 °F 48% 29.96 in 10.0 mi SSE 4.6 mph - N/A   Clear
7:55 PM 84.2 °F 85.6 °F 64.4 °F 51% 29.96 in 10.0 mi SE 3.5 mph - N/A   Clear
8:15 PM 80.6 °F 82.3 °F 64.4 °F 58% 29.96 in 10.0 mi SE 4.6 mph - N/A   Clear
8:35 PM 80.6 °F 82.3 °F 64.4 °F 58% 29.96 in 10.0 mi SE 4.6 mph - N/A   Clear
8:55 PM 78.8 °F - 64.4 °F 61% 29.97 in 10.0 mi SE 5.8 mph - N/A   Clear
9:15 PM 77.0 °F - 64.4 °F 65% 29.97 in 10.0 mi SSE 6.9 mph - N/A   Clear
9:35 PM 77.0 °F - 64.4 °F 65% 29.98 in 10.0 mi SSE 5.8 mph - N/A   Clear
9:55 PM 77.0 °F - 64.4 °F 65% 29.98 in 10.0 mi SSE 6.9 mph - N/A   Clear
10:15 PM 77.0 °F - 62.6 °F 61% 29.98 in 10.0 mi SSE 5.8 mph - N/A   Clear
10:35 PM 77.0 °F - 62.6 °F 61% 29.98 in 10.0 mi SSE 5.8 mph - N/A   Clear
10:55 PM 77.0 °F - 62.6 °F 61% 29.98 in 10.0 mi SE 3.5 mph - N/A   Clear
11:15 PM 75.2 °F - 62.6 °F 65% 29.98 in 10.0 mi Calm Calm - N/A   Clear
11:35 PM 73.4 °F - 62.6 °F 69% 29.98 in 10.0 mi SE 3.5 mph - N/A   Clear
11:55 PM 75.2 °F - 64.4 °F 69% 29.98 in 10.0 mi SE 5.8 mph - N/A   Clear